TimeAKDT,TemperatureF,Dew PointF,Humidity,Sea Level PressureIn,VisibilityMPH,Wind Direction,Wind SpeedMPH,Gust SpeedMPH,PrecipitationIn,Events,Conditions,WindDirDegrees,DateUTC
12:53 AM,66.9,55.9,68,30.09,10.0,NW,9.2,-,N/A,,Clear,310,2013-07-26 08:53:00
1:53 AM,63.0,55.0,75,30.11,10.0,West,5.8,-,N/A,,Clear,280,2013-07-26 09:53:00
2:53 AM,63.0,55.0,75,30.12,10.0,Calm,Calm,-,N/A,,Clear,0,2013-07-26 10:53:00
3:53 AM,61.0,55.0,81,30.12,10.0,WNW,9.2,-,N/A,,Clear,300,2013-07-26 11:53:00
4:53 AM,57.9,54.0,87,30.13,10.0,SW,9.2,-,N/A,,Clear,230,2013-07-26 12:53:00
5:53 AM,59.0,54.0,83,30.15,10.0,NNW,3.5,-,N/A,,Clear,340,2013-07-26 13:53:00
6:53 AM,57.0,54.0,89,30.16,10.0,Calm,Calm,-,N/A,,Clear,0,2013-07-26 14:53:00
7:53 AM,57.9,54.0,87,30.18,10.0,ESE,5.8,-,N/A,,Clear,120,2013-07-26 15:53:00
8:53 AM,61.0,55.0,81,30.19,10.0,ENE,3.5,-,N/A,,Clear,60,2013-07-26 16:53:00
9:53 AM,61.0,55.0,81,30.21,10.0,ENE,6.9,-,N/A,,Clear,70,2013-07-26 17:53:00
10:53 AM,60.1,55.0,83,30.22,10.0,East,8.1,-,N/A,,Clear,90,2013-07-26 18:53:00
11:53 AM,64.0,55.9,75,30.23,10.0,East,6.9,-,N/A,,Clear,90,2013-07-26 19:53:00
12:53 PM,66.0,55.9,70,30.24,10.0,SE,4.6,-,N/A,,Clear,140,2013-07-26 20:53:00
1:53 PM,69.1,55.9,63,30.24,10.0,SSE,4.6,-,N/A,,Clear,160,2013-07-26 21:53:00
2:53 PM,71.1,55.9,59,30.24,10.0,SE,6.9,-,N/A,,Clear,140,2013-07-26 22:53:00
3:53 PM,72.0,55.9,57,30.25,10.0,South,6.9,-,N/A,,Clear,190,2013-07-26 23:53:00
4:53 PM,73.0,57.0,57,30.25,10.0,SSE,11.5,-,N/A,,Clear,150,2013-07-27 00:53:00
5:53 PM,72.0,57.0,59,30.26,10.0,SSE,12.7,-,N/A,,Clear,160,2013-07-27 01:53:00
6:53 PM,68.0,55.9,65,30.26,10.0,SSE,10.4,-,N/A,,Clear,160,2013-07-27 02:53:00
7:53 PM,66.9,55.9,68,30.26,10.0,SE,8.1,-,N/A,,Clear,140,2013-07-27 03:53:00
8:53 PM,66.0,55.9,70,30.26,10.0,SSE,5.8,-,N/A,,Clear,160,2013-07-27 04:53:00
9:53 PM,62.1,55.0,78,30.27,10.0,South,3.5,-,N/A,,Clear,190,2013-07-27 05:53:00
10:53 PM,59.0,54.0,83,30.29,10.0,WSW,4.6,-,N/A,,Clear,250,2013-07-27 06:53:00
11:53 PM,57.9,54.0,87,30.30,10.0,West,4.6,-,N/A,,Clear,260,2013-07-27 07:53:00